Change the Weather History Date:

Tuesday, July 30, 2013

  Actual Average Record
Temperature  
Mean Temperature 62 °F -  
Max Temperature 68 °F 61 °F 88 °F (1976)
Min Temperature 57 °F 52 °F 46 °F (1972)
Degree Days  
Heating Degree Days 4    
Growing Degree Days 12 (Base 50)    
Moisture  
Dew Point 55 °F    
Average Humidity 79    
Maximum Humidity 90    
Minimum Humidity 68    
Precipitation  
Precipitation 0.00 in - - ()
Sea Level Pressure  
Sea Level Pressure 30.18 in    
Wind  
Wind Speed 11 mph (NNW)    
Max Wind Speed 20 mph    
Max Gust Speed -    
Visibility 10 miles    
Events Fog    
Averages and records for this station are not official NWS values.
T = Trace of Precipitation, MM = Missing Value Source: NWS Daily Summary

Daily Weather History Graph

Daily Weather History Graph

Search for Another Location

Airport or City:

Trip Planner

Search our weather history database for the weather conditions in past years. The results will help you decide how hot, cold, wet, or windy it might be!

Date:

Astronomy

Jul. 30, 2013 Rise Set
Actual Time 4:56 AM AKDT 9:17 PM AKDT
Civil Twilight 4:05 AM AKDT 10:08 PM AKDT
Nautical Twilight 2:42 AM AKDT 11:29 PM AKDT
Astronomical Twilight Sun does not rise Sun does not rise
Moon No Moon Rise 3:41 PM AKDT (7/30)
Length of Visible Light 18h 03m
Length of Day
16h 20m
Last Quarter, 39% of the Moon is Illuminated
Jul 30
Last Quarter
Aug 6
New
Aug 14
First Quarter
Aug 20
Full
Aug 28
Last Quarter

Hourly Weather History & Observations

Time (AKDT) Temp. Dew Point Humidity Pressure Visibility Wind Dir Wind Speed Gust Speed Precip Events Conditions
12:53 AM 59.0 °F 54.0 °F 83% 30.14 in 10.0 mi North 9.2 mph - N/A Fog Clear
1:53 AM 59.0 °F 55.0 °F 87% 30.14 in 10.0 mi NNW 13.8 mph - N/A   Partly Cloudy
2:31 AM 59.0 °F 55.0 °F 87% 30.15 in 10.0 mi NW 10.4 mph - N/A   Mostly Cloudy
2:38 AM 57.9 °F 55.0 °F 90% 30.15 in 10.0 mi NNW 10.4 mph - N/A   Scattered Clouds
2:53 AM 59.0 °F 55.0 °F 87% 30.15 in 10.0 mi NNW 15.0 mph - N/A   Mostly Cloudy
3:53 AM 59.0 °F 54.0 °F 83% 30.15 in 10.0 mi NNW 13.8 mph - N/A   Overcast
4:53 AM 57.9 °F 54.0 °F 87% 30.16 in 10.0 mi NNW 10.4 mph - N/A   Overcast
5:02 AM 59.0 °F 55.0 °F 87% 30.16 in 10.0 mi NNW 8.1 mph - N/A   Overcast
5:53 AM 59.0 °F 55.0 °F 87% 30.17 in 10.0 mi North 9.2 mph - N/A   Overcast
6:11 AM 59.0 °F 54.0 °F 83% 30.17 in 10.0 mi North 10.4 mph - N/A   Overcast
6:53 AM 59.0 °F 54.0 °F 83% 30.17 in 10.0 mi North 6.9 mph - N/A   Overcast
7:53 AM 59.0 °F 54.0 °F 83% 30.18 in 10.0 mi North 6.9 mph - N/A   Overcast
8:53 AM 60.1 °F 54.0 °F 80% 30.18 in 10.0 mi NNW 10.4 mph - N/A   Overcast
9:53 AM 62.1 °F 55.0 °F 78% 30.19 in 10.0 mi Calm Calm - N/A   Overcast
10:21 AM 63.0 °F 55.9 °F 78% 30.18 in 10.0 mi Variable 5.8 mph - N/A   Overcast
10:53 AM 64.9 °F 55.9 °F 73% 30.19 in 10.0 mi Calm Calm - N/A   Mostly Cloudy
11:23 AM 63.0 °F 55.0 °F 75% 30.19 in 10.0 mi NW 9.2 mph - N/A   Scattered Clouds
11:53 AM 66.0 °F 55.9 °F 70% 30.19 in 10.0 mi NNW 11.5 mph - N/A   Scattered Clouds
12:53 PM 66.9 °F 57.0 °F 70% 30.19 in 10.0 mi WNW 12.7 mph - N/A   Scattered Clouds
1:53 PM 66.9 °F 55.9 °F 68% 30.19 in 10.0 mi WNW 15.0 mph - N/A   Clear
2:53 PM 66.9 °F 57.0 °F 70% 30.19 in 10.0 mi WNW 19.6 mph - N/A   Clear
3:53 PM 66.9 °F 55.9 °F 68% 30.19 in 10.0 mi WNW 17.3 mph - N/A   Clear
4:53 PM 66.0 °F 55.9 °F 70% 30.18 in 10.0 mi WNW 18.4 mph - N/A   Clear
5:53 PM 66.0 °F 57.0 °F 73% 30.18 in 10.0 mi WNW 17.3 mph - N/A   Clear
6:53 PM 64.9 °F 55.9 °F 73% 30.18 in 10.0 mi WNW 16.1 mph - N/A   Clear
7:53 PM 64.0 °F 55.9 °F 75% 30.19 in 10.0 mi NW 15.0 mph - N/A   Clear
8:53 PM 63.0 °F 55.9 °F 78% 30.20 in 10.0 mi NW 11.5 mph - N/A   Clear
9:53 PM 61.0 °F 55.9 °F 83% 30.21 in 10.0 mi NW 13.8 mph - N/A   Partly Cloudy
11:53 PM 60.1 °F 55.0 °F 83% 30.22 in 10.0 mi North 8.1 mph - N/A   Partly Cloudy